EFW2606 EGKK-LIBD

Flight info

Callsign EFW2606
Flight time 2h 29m
Altitude 35000
Route ODVIK Y311 DVR UL9 KONAN DCT KOK DCT RITAX DCT KRH DCT UTABA DCT MOMUK DCT UMVEG DCT VEKEN DCT ARNOS DCT RILIM DCT AIOSA DCT BANAV
Aircraft A321/M-SDE3FGIJ1KRWXY/SB1

Departure

Time 2026-05-08 09:10
Airport London Gatwick Airport (EGKK)

Arrival

Time 2026-05-08 11:39
Airport Bari Karol Wojtyła International Airport (LIBD)
Time Latitude Longitude Altitude Speed Heading
2026-05-08 08:27 51.15466 -0.17088 198 ft 0 kts 349°
2026-05-08 08:55 51.15463 -0.17087 198 ft 2 kts 349°
2026-05-08 08:55 51.15453 -0.17084 198 ft 2 kts 349°
2026-05-08 08:55 51.15440 -0.17076 198 ft 2 kts 321°
2026-05-08 08:56 51.15430 -0.17058 198 ft 2 kts 299°
2026-05-08 08:56 51.15425 -0.17036 198 ft 2 kts 276°
2026-05-08 08:56 51.15425 -0.17019 198 ft 0 kts 259°
2026-05-08 08:56 51.15427 -0.17008 198 ft 0 kts 257°
2026-05-08 09:01 51.15426 -0.17010 198 ft 0 kts 257°
2026-05-08 09:01 51.15424 -0.17022 198 ft 1 kts 257°
2026-05-08 09:01 51.15421 -0.17048 198 ft 2 kts 257°
2026-05-08 09:01 51.15415 -0.17085 198 ft 4 kts 257°
2026-05-08 09:02 51.15407 -0.17134 198 ft 5 kts 251°
2026-05-08 09:02 51.15392 -0.17190 198 ft 6 kts 245°
2026-05-08 09:02 51.15375 -0.17236 198 ft 2 kts 219°
2026-05-08 09:02 51.15355 -0.17242 198 ft 3 kts 182°
2026-05-08 09:03 51.15321 -0.17259 198 ft 6 kts 223°
2026-05-08 09:03 51.15304 -0.17330 198 ft 7 kts 265°
2026-05-08 09:03 51.15298 -0.17432 198 ft 11 kts 259°
2026-05-08 09:03 51.15278 -0.17584 198 ft 16 kts 257°
2026-05-08 09:04 51.15249 -0.17790 198 ft 21 kts 258°
2026-05-08 09:04 51.15215 -0.18034 198 ft 22 kts 258°
2026-05-08 09:04 51.15184 -0.18276 198 ft 22 kts 259°
2026-05-08 09:04 51.15153 -0.18540 198 ft 24 kts 259°
2026-05-08 09:05 51.15118 -0.18801 198 ft 23 kts 257°
2026-05-08 09:05 51.15082 -0.19064 198 ft 23 kts 258°
2026-05-08 09:05 51.15047 -0.19316 198 ft 22 kts 257°
2026-05-08 09:05 51.15014 -0.19557 198 ft 21 kts 259°
2026-05-08 09:06 51.14981 -0.19790 198 ft 21 kts 257°
2026-05-08 09:06 51.14952 -0.20013 198 ft 20 kts 258°
2026-05-08 09:06 51.14922 -0.20229 198 ft 19 kts 257°
2026-05-08 09:06 51.14893 -0.20440 198 ft 19 kts 258°
2026-05-08 09:07 51.14865 -0.20644 198 ft 19 kts 258°
2026-05-08 09:07 51.14835 -0.20865 198 ft 21 kts 257°
2026-05-08 09:07 51.14802 -0.21092 198 ft 16 kts 257°
2026-05-08 09:07 51.14778 -0.21206 198 ft 9 kts 257°
2026-05-08 09:08 51.14763 -0.21315 198 ft 10 kts 259°
2026-05-08 09:08 51.14739 -0.21393 198 ft 7 kts 211°
2026-05-08 09:08 51.14686 -0.21393 198 ft 8 kts 157°
2026-05-08 09:08 51.14653 -0.21349 198 ft 4 kts 140°
2026-05-08 09:09 51.14627 -0.21331 198 ft 4 kts 167°
2026-05-08 09:09 51.14576 -0.21310 198 ft 8 kts 159°
2026-05-08 09:09 51.14529 -0.21242 198 ft 9 kts 121°
2026-05-08 09:09 51.14518 -0.21169 198 ft 6 kts 81°
2026-05-08 09:10 51.14536 -0.21036 198 ft 31 kts 78°
2026-05-08 09:10 51.14642 -0.20268 198 ft 109 kts 78°
2026-05-08 09:10 51.14855 -0.18733 235 ft 168 kts 78°
2026-05-08 09:10 51.15093 -0.16937 975 ft 165 kts 79°
2026-05-08 09:11 51.15326 -0.15189 1755 ft 162 kts 78°
2026-05-08 09:11 51.15580 -0.13419 2123 ft 170 kts 79°
2026-05-08 09:11 51.15854 -0.11501 2392 ft 187 kts 81°
2026-05-08 09:11 51.16140 -0.09406 2708 ft 203 kts 79°
2026-05-08 09:12 51.16460 -0.07100 3008 ft 222 kts 79°
2026-05-08 09:12 51.16759 -0.04586 3317 ft 242 kts 84°
2026-05-08 09:12 51.16870 -0.01804 3776 ft 256 kts 92°
2026-05-08 09:12 51.16835 0.01024 4489 ft 260 kts 93°
2026-05-08 09:13 51.16772 0.03932 5081 ft 263 kts 93°
2026-05-08 09:13 51.16713 0.06839 5333 ft 263 kts 92°
2026-05-08 09:13 51.16657 0.09741 5582 ft 264 kts 92°
2026-05-08 09:13 51.16603 0.12654 5831 ft 266 kts 92°
2026-05-08 09:14 51.16549 0.15617 5981 ft 267 kts 92°
2026-05-08 09:14 51.16540 0.18553 5985 ft 267 kts 90°
2026-05-08 09:14 51.16553 0.21532 5987 ft 267 kts 90°
2026-05-08 09:14 51.16567 0.24472 5988 ft 267 kts 90°
2026-05-08 09:15 51.16576 0.27431 5989 ft 267 kts 90°
2026-05-08 09:15 51.16582 0.30392 5989 ft 267 kts 90°
2026-05-08 09:15 51.16587 0.33337 5989 ft 267 kts 90°
2026-05-08 09:15 51.16591 0.36276 5989 ft 267 kts 90°
2026-05-08 09:16 51.16592 0.39225 5989 ft 267 kts 90°
2026-05-08 09:16 51.16593 0.42210 5989 ft 267 kts 90°
2026-05-08 09:16 51.16594 0.45129 5987 ft 264 kts 90°
2026-05-08 09:16 51.16594 0.48064 5988 ft 262 kts 90°
2026-05-08 09:17 51.16594 0.50947 6167 ft 262 kts 90°
2026-05-08 09:17 51.16593 0.53853 6649 ft 264 kts 90°
2026-05-08 09:17 51.16591 0.56752 7344 ft 266 kts 90°
2026-05-08 09:17 51.16589 0.59698 8024 ft 269 kts 90°
2026-05-08 09:18 51.16584 0.62732 8538 ft 279 kts 90°
2026-05-08 09:18 51.16580 0.65837 9159 ft 283 kts 91°
2026-05-08 09:18 51.16575 0.68971 9806 ft 286 kts 91°
2026-05-08 09:18 51.16569 0.72166 10397 ft 291 kts 91°
2026-05-08 09:19 51.16561 0.75448 10715 ft 306 kts 91°
2026-05-08 09:19 51.16552 0.78918 10993 ft 322 kts 91°
2026-05-08 09:19 51.16541 0.82559 11263 ft 337 kts 91°
2026-05-08 09:19 51.16528 0.86389 11556 ft 350 kts 91°
2026-05-08 09:20 51.16515 0.90284 12049 ft 357 kts 91°
2026-05-08 09:20 51.16501 0.94263 12660 ft 359 kts 91°
2026-05-08 09:20 51.16486 0.98191 13253 ft 361 kts 91°
2026-05-08 09:20 51.16468 1.02215 13828 ft 364 kts 91°
2026-05-08 09:21 51.16448 1.06262 14390 ft 367 kts 91°
2026-05-08 09:21 51.16428 1.10323 14931 ft 370 kts 92°
2026-05-08 09:22 51.16250 1.35481 17963 ft 388 kts 94°
2026-05-08 09:23 51.16089 1.39744 18434 ft 390 kts 96°
2026-05-08 09:23 51.15883 1.44068 18900 ft 393 kts 96°
2026-05-08 09:23 51.15668 1.48453 19356 ft 396 kts 96°
2026-05-08 09:23 51.15452 1.52818 19803 ft 399 kts 96°
2026-05-08 09:24 51.15236 1.57201 20243 ft 401 kts 96°
2026-05-08 09:24 51.15020 1.61612 20666 ft 404 kts 96°
2026-05-08 09:24 51.14799 1.66071 21071 ft 406 kts 97°
2026-05-08 09:24 51.14574 1.70590 21488 ft 409 kts 96°
2026-05-08 09:25 51.14348 1.75094 21888 ft 411 kts 96°
2026-05-08 09:25 51.14119 1.79633 22275 ft 414 kts 96°
2026-05-08 09:25 51.13889 1.84170 22647 ft 416 kts 96°
2026-05-08 09:25 51.13652 1.88793 23018 ft 418 kts 96°
2026-05-08 09:26 51.13413 1.93400 23375 ft 421 kts 96°
2026-05-08 09:26 51.13171 1.98043 23727 ft 423 kts 96°
2026-05-08 09:26 51.12928 2.02680 24060 ft 426 kts 96°
2026-05-08 09:26 51.12678 2.07399 24374 ft 428 kts 96°
2026-05-08 09:27 51.12427 2.12115 24694 ft 431 kts 96°
2026-05-08 09:27 51.12169 2.16907 25019 ft 433 kts 96°
2026-05-08 09:27 51.11911 2.21681 25334 ft 435 kts 96°
2026-05-08 09:27 51.11652 2.26433 25639 ft 437 kts 96°
2026-05-08 09:28 51.11387 2.31260 25939 ft 439 kts 96°
2026-05-08 09:28 51.11119 2.36110 26235 ft 441 kts 96°
2026-05-08 09:28 51.10847 2.40986 26529 ft 443 kts 96°
2026-05-08 09:28 51.10573 2.45860 26814 ft 445 kts 96°
2026-05-08 09:29 51.10297 2.50735 27091 ft 447 kts 96°
2026-05-08 09:29 51.10015 2.55656 27364 ft 449 kts 96°
2026-05-08 09:29 51.09673 2.60574 27627 ft 450 kts 100°
2026-05-08 09:29 51.09009 2.65401 27883 ft 450 kts 108°
2026-05-08 09:30 51.07972 2.70104 28129 ft 449 kts 115°
2026-05-08 09:30 51.06676 2.74588 28376 ft 450 kts 118°
2026-05-08 09:30 51.05305 2.79073 28614 ft 452 kts 118°
2026-05-08 09:30 51.03910 2.83584 28853 ft 454 kts 118°
2026-05-08 09:31 51.02517 2.88098 29087 ft 455 kts 118°
2026-05-08 09:31 51.01129 2.92604 29358 ft 456 kts 118°
2026-05-08 09:31 50.99747 2.97104 29687 ft 454 kts 118°
2026-05-08 09:31 50.98364 3.01605 30009 ft 453 kts 118°
2026-05-08 09:32 50.97002 3.06035 30306 ft 453 kts 118°
2026-05-08 09:32 50.95618 3.10535 30591 ft 452 kts 118°
2026-05-08 09:32 50.94252 3.14967 30862 ft 452 kts 118°
2026-05-08 09:32 50.92857 3.19490 31129 ft 452 kts 118°
2026-05-08 09:33 50.91488 3.23923 31383 ft 452 kts 118°
2026-05-08 09:33 50.90111 3.28367 31634 ft 452 kts 118°
2026-05-08 09:33 50.88730 3.32817 31895 ft 451 kts 118°
2026-05-08 09:33 50.87345 3.37268 32155 ft 451 kts 118°
2026-05-08 09:34 50.85954 3.41734 32410 ft 451 kts 118°
2026-05-08 09:34 50.84570 3.46171 32662 ft 450 kts 118°
2026-05-08 09:34 50.83191 3.50582 32906 ft 450 kts 118°
2026-05-08 09:34 50.81803 3.55018 33146 ft 450 kts 118°
2026-05-08 09:35 50.80420 3.59429 33366 ft 450 kts 118°
2026-05-08 09:35 50.79046 3.63803 33548 ft 450 kts 118°
2026-05-08 09:35 50.77641 3.68266 33718 ft 451 kts 119°
2026-05-08 09:35 50.76237 3.72717 33894 ft 452 kts 119°
2026-05-08 09:36 50.74840 3.77135 34069 ft 453 kts 119°
2026-05-08 09:36 50.73434 3.81577 34237 ft 453 kts 119°
2026-05-08 09:36 50.72040 3.85973 34392 ft 454 kts 119°
2026-05-08 09:36 50.70620 3.90443 34552 ft 455 kts 119°
2026-05-08 09:37 50.69194 3.94923 34709 ft 456 kts 119°
2026-05-08 09:37 50.67782 3.99352 34857 ft 456 kts 119°
2026-05-08 09:37 50.66357 4.03814 35004 ft 457 kts 119°
2026-05-08 09:38 50.63509 4.12708 35089 ft 458 kts 119°
2026-05-08 09:38 50.60637 4.21646 35092 ft 458 kts 119°
2026-05-08 09:39 50.57757 4.30574 35092 ft 458 kts 119°
2026-05-08 09:39 50.54865 4.39508 35093 ft 458 kts 119°
2026-05-08 09:40 50.51985 4.48376 35093 ft 458 kts 119°
2026-05-08 09:40 50.49077 4.57295 35093 ft 458 kts 119°
2026-05-08 09:41 50.46178 4.66156 35093 ft 458 kts 120°
2026-05-08 09:41 50.43262 4.75036 35093 ft 458 kts 120°
2026-05-08 09:42 50.40363 4.83833 35093 ft 458 kts 120°
2026-05-08 09:42 50.37423 4.92725 35093 ft 458 kts 120°
2026-05-08 09:43 50.34507 5.01516 35093 ft 458 kts 120°
2026-05-08 09:43 50.31568 5.10339 35093 ft 458 kts 120°
2026-05-08 09:44 50.28626 5.19143 35093 ft 459 kts 120°
2026-05-08 09:44 50.25657 5.27997 35093 ft 459 kts 120°
2026-05-08 09:45 50.22702 5.36780 35093 ft 459 kts 120°
2026-05-08 09:45 50.19741 5.45549 35093 ft 459 kts 120°
2026-05-08 09:46 50.16758 5.54352 35093 ft 459 kts 120°
2026-05-08 09:46 50.13786 5.63095 35094 ft 459 kts 120°
2026-05-08 09:47 50.10789 5.71883 35092 ft 458 kts 121°
2026-05-08 09:47 50.07810 5.80579 35092 ft 458 kts 121°
2026-05-08 09:48 50.04670 5.89185 35092 ft 457 kts 123°
2026-05-08 09:48 50.01477 5.97694 35092 ft 457 kts 123°
2026-05-08 09:49 49.98283 6.06215 35091 ft 457 kts 123°
2026-05-08 09:49 49.95091 6.14727 35091 ft 457 kts 123°
2026-05-08 09:50 49.91896 6.23226 35091 ft 457 kts 123°
2026-05-08 09:50 49.88678 6.31763 35091 ft 457 kts 123°
2026-05-08 09:51 49.85478 6.40222 35091 ft 457 kts 123°
2026-05-08 09:51 49.82267 6.48684 35090 ft 457 kts 123°
2026-05-08 09:52 49.79047 6.57145 35090 ft 457 kts 123°
2026-05-08 09:52 49.75812 6.65614 35090 ft 457 kts 123°
2026-05-08 09:53 49.72592 6.74018 35091 ft 458 kts 123°
2026-05-08 09:53 49.69339 6.82483 35091 ft 458 kts 123°
2026-05-08 09:54 49.66086 6.90918 35091 ft 458 kts 123°
2026-05-08 09:54 49.62829 6.99338 35091 ft 458 kts 123°
2026-05-08 09:55 49.59573 7.07725 35092 ft 459 kts 123°
2026-05-08 09:55 49.56303 7.16125 35094 ft 459 kts 123°
2026-05-08 09:56 49.53014 7.24546 35096 ft 459 kts 123°
2026-05-08 09:56 49.49724 7.32942 35098 ft 459 kts 123°
2026-05-08 09:57 49.44781 7.45507 35099 ft 459 kts 123°
2026-05-08 09:57 49.41487 7.53847 35100 ft 460 kts 123°
2026-05-08 09:58 49.38168 7.62224 35100 ft 460 kts 123°
2026-05-08 09:58 49.34856 7.70557 35099 ft 460 kts 124°
2026-05-08 09:59 49.31521 7.78920 35100 ft 460 kts 124°
2026-05-08 09:59 49.28193 7.87242 35100 ft 460 kts 124°
2026-05-08 10:00 49.24873 7.95517 35100 ft 459 kts 124°
2026-05-08 10:00 49.21518 8.03856 35099 ft 460 kts 124°
2026-05-08 10:01 49.18176 8.12132 35101 ft 461 kts 124°
2026-05-08 10:01 49.14803 8.20457 35101 ft 461 kts 124°
2026-05-08 10:02 49.11441 8.28734 35099 ft 461 kts 124°
2026-05-08 10:02 49.08060 8.37030 35096 ft 461 kts 124°
2026-05-08 10:03 49.04674 8.45310 35094 ft 461 kts 124°
2026-05-08 10:03 49.01084 8.53260 35093 ft 458 kts 130°
2026-05-08 10:04 48.96914 8.60520 35093 ft 455 kts 137°
2026-05-08 10:04 48.92251 8.66931 35092 ft 452 kts 145°
2026-05-08 10:05 48.87325 8.72846 35093 ft 452 kts 145°
2026-05-08 10:05 48.82380 8.78781 35093 ft 452 kts 145°
2026-05-08 10:06 48.77480 8.84661 35093 ft 452 kts 145°
2026-05-08 10:06 48.72563 8.90547 35093 ft 452 kts 145°
2026-05-08 10:07 48.67659 8.96406 35094 ft 452 kts 145°
2026-05-08 10:07 48.62725 9.02284 35098 ft 452 kts 145°
2026-05-08 10:08 48.57784 9.08157 35102 ft 452 kts 145°
2026-05-08 10:08 48.52874 9.13977 35104 ft 452 kts 145°
2026-05-08 10:09 48.47961 9.19787 35101 ft 451 kts 146°
2026-05-08 10:09 48.43013 9.25625 35097 ft 451 kts 146°
2026-05-08 10:10 48.38095 9.31411 35094 ft 451 kts 146°
2026-05-08 10:10 48.33172 9.37187 35093 ft 451 kts 146°
2026-05-08 10:11 48.28236 9.42965 35093 ft 451 kts 146°
2026-05-08 10:11 48.23373 9.48922 35093 ft 452 kts 143°
2026-05-08 10:12 48.18627 9.55078 35093 ft 452 kts 143°
2026-05-08 10:12 48.13885 9.61213 35093 ft 452 kts 143°
2026-05-08 10:13 48.09142 9.67333 35092 ft 452 kts 144°
2026-05-08 10:13 48.04389 9.73450 35092 ft 451 kts 144°
2026-05-08 10:14 47.99678 9.79496 35092 ft 451 kts 144°
2026-05-08 10:14 47.94909 9.85603 35091 ft 451 kts 144°
2026-05-08 10:15 47.90194 9.91669 35086 ft 452 kts 142°
2026-05-08 10:15 47.85807 9.98445 35084 ft 457 kts 134°
2026-05-08 10:16 47.82059 10.06139 35083 ft 462 kts 126°
2026-05-08 10:16 47.79032 10.14584 35087 ft 466 kts 119°
2026-05-08 10:17 47.76286 10.23234 35089 ft 466 kts 119°
2026-05-08 10:17 47.73514 10.31924 35090 ft 466 kts 119°
2026-05-08 10:18 47.70732 10.40572 35091 ft 465 kts 120°
2026-05-08 10:18 47.67929 10.49247 35091 ft 466 kts 120°
2026-05-08 10:19 47.65132 10.57862 35091 ft 466 kts 120°
2026-05-08 10:20 47.60901 10.70843 35090 ft 466 kts 121°
2026-05-08 10:20 47.58084 10.79447 35091 ft 466 kts 121°
2026-05-08 10:21 47.55262 10.88040 35090 ft 466 kts 121°
2026-05-08 10:21 47.52429 10.96632 35086 ft 466 kts 121°
2026-05-08 10:22 47.49575 11.05265 35078 ft 467 kts 121°
2026-05-08 10:22 47.46717 11.13876 35069 ft 467 kts 121°
2026-05-08 10:23 47.43869 11.22430 35061 ft 468 kts 121°
2026-05-08 10:23 47.40988 11.31056 35055 ft 468 kts 121°
2026-05-08 10:24 47.38113 11.39640 35050 ft 468 kts 121°
2026-05-08 10:24 47.35216 11.48254 35044 ft 469 kts 121°
2026-05-08 10:25 47.32315 11.56851 35041 ft 469 kts 121°
2026-05-08 10:25 47.29410 11.65438 35039 ft 469 kts 121°
2026-05-08 10:26 47.26498 11.74014 35038 ft 469 kts 121°
2026-05-08 10:26 47.23581 11.82573 35038 ft 469 kts 121°
2026-05-08 10:27 47.20550 11.91049 35041 ft 466 kts 126°
2026-05-08 10:27 47.17150 11.99100 35049 ft 464 kts 127°
2026-05-08 10:28 47.13733 12.07066 35056 ft 465 kts 127°
2026-05-08 10:28 47.10276 12.15115 35060 ft 465 kts 127°
2026-05-08 10:29 47.06835 12.23116 35062 ft 465 kts 127°
2026-05-08 10:29 47.03386 12.31116 35064 ft 465 kts 127°
2026-05-08 10:30 46.99940 12.39086 35063 ft 465 kts 127°
2026-05-08 10:30 46.96497 12.47024 35063 ft 465 kts 127°
2026-05-08 10:31 46.93022 12.55015 35064 ft 465 kts 127°
2026-05-08 10:31 46.89578 12.62911 35064 ft 465 kts 127°
2026-05-08 10:32 46.86084 12.70900 35063 ft 464 kts 128°
2026-05-08 10:32 46.82633 12.78766 35066 ft 464 kts 128°
2026-05-08 10:33 46.79133 12.86722 35070 ft 464 kts 128°
2026-05-08 10:33 46.75653 12.94606 35075 ft 465 kts 128°
2026-05-08 10:34 46.72159 13.02504 35080 ft 465 kts 128°
2026-05-08 10:34 46.68648 13.10419 35081 ft 465 kts 128°
2026-05-08 10:35 46.65145 13.18295 35078 ft 465 kts 128°
2026-05-08 10:35 46.61646 13.26135 35072 ft 465 kts 127°
2026-05-08 10:36 46.58471 13.34350 35067 ft 471 kts 120°
2026-05-08 10:36 46.55988 13.43238 35066 ft 475 kts 114°
2026-05-08 10:37 46.53551 13.52095 35062 ft 470 kts 122°
2026-05-08 10:37 46.49815 13.59599 35064 ft 457 kts 140°
2026-05-08 10:38 46.44899 13.65133 35067 ft 446 kts 154°
2026-05-08 10:38 46.39613 13.69838 35065 ft 446 kts 154°
2026-05-08 10:39 46.34349 13.74509 35064 ft 446 kts 154°
2026-05-08 10:39 46.29095 13.79199 35065 ft 446 kts 154°
2026-05-08 10:40 46.23842 13.83894 35064 ft 445 kts 154°
2026-05-08 10:40 46.18575 13.88597 35063 ft 445 kts 154°
2026-05-08 10:41 46.13349 13.93254 35059 ft 445 kts 154°
2026-05-08 10:41 46.08084 13.97936 35053 ft 445 kts 154°
2026-05-08 10:42 46.02834 14.02596 35049 ft 445 kts 154°
2026-05-08 10:42 45.97580 14.07247 35049 ft 445 kts 154°
2026-05-08 10:43 45.92320 14.11894 35052 ft 445 kts 154°
2026-05-08 10:43 45.87054 14.16536 35057 ft 445 kts 154°
2026-05-08 10:44 45.81816 14.21143 35060 ft 445 kts 154°
2026-05-08 10:44 45.76534 14.25776 35062 ft 445 kts 154°
2026-05-08 10:45 45.71261 14.30393 35062 ft 445 kts 154°
2026-05-08 10:45 45.65997 14.34991 35062 ft 445 kts 154°
2026-05-08 10:46 45.60742 14.39571 35063 ft 445 kts 154°
2026-05-08 10:46 45.55458 14.44167 35062 ft 445 kts 154°
2026-05-08 10:47 45.50191 14.48736 35059 ft 445 kts 154°
2026-05-08 10:47 45.44931 14.53291 35053 ft 445 kts 154°
2026-05-08 10:48 45.39650 14.57855 35045 ft 445 kts 154°
2026-05-08 10:48 45.34399 14.62380 35041 ft 445 kts 153°
2026-05-08 10:49 45.29101 14.66937 35038 ft 444 kts 154°
2026-05-08 10:49 45.23846 14.71446 35038 ft 444 kts 154°
2026-05-08 10:50 45.18574 14.75961 35038 ft 444 kts 154°
2026-05-08 10:50 45.13316 14.80454 35038 ft 443 kts 154°
2026-05-08 10:51 45.08043 14.84949 35038 ft 443 kts 154°
2026-05-08 10:51 45.02802 14.89409 35038 ft 443 kts 154°
2026-05-08 10:52 44.97527 14.93886 35038 ft 443 kts 154°
2026-05-08 10:52 44.92247 14.98359 35038 ft 443 kts 154°
2026-05-08 10:53 44.86987 15.02806 35039 ft 443 kts 154°
2026-05-08 10:53 44.81728 15.07240 35038 ft 443 kts 154°
2026-05-08 10:54 44.76456 15.11677 35038 ft 443 kts 154°
2026-05-08 10:54 44.71183 15.16107 35038 ft 443 kts 154°
2026-05-08 10:55 44.65922 15.20514 35038 ft 443 kts 154°
2026-05-08 10:55 44.60638 15.24933 35038 ft 442 kts 153°
2026-05-08 10:56 44.55373 15.29328 35038 ft 442 kts 153°
2026-05-08 10:56 44.50120 15.33700 35038 ft 442 kts 153°
2026-05-08 10:57 44.44862 15.38069 35038 ft 442 kts 153°
2026-05-08 10:57 44.36959 15.44619 35039 ft 442 kts 153°
2026-05-08 10:58 44.31671 15.48990 35038 ft 441 kts 153°
2026-05-08 10:58 44.26428 15.53314 35038 ft 441 kts 153°
2026-05-08 10:59 44.21160 15.57649 35038 ft 441 kts 153°
2026-05-08 10:59 44.15899 15.61971 35038 ft 441 kts 153°
2026-05-08 11:00 44.10632 15.66288 35038 ft 441 kts 154°
2026-05-08 11:00 44.05351 15.70607 35038 ft 440 kts 154°
2026-05-08 11:01 44.00092 15.74899 35038 ft 440 kts 154°
2026-05-08 11:01 43.94814 15.79198 35038 ft 439 kts 154°
2026-05-08 11:02 43.86936 15.85597 35039 ft 439 kts 154°
2026-05-08 11:03 43.81697 15.89843 35038 ft 439 kts 154°
2026-05-08 11:03 43.76426 15.94106 35035 ft 439 kts 154°
2026-05-08 11:04 43.71160 15.98353 35028 ft 439 kts 154°
2026-05-08 11:04 43.65910 16.02580 35021 ft 440 kts 154°
2026-05-08 11:05 43.60654 16.06806 35015 ft 440 kts 154°
2026-05-08 11:05 43.55382 16.11033 35011 ft 440 kts 154°
2026-05-08 11:06 43.50084 16.15274 35010 ft 440 kts 154°
2026-05-08 11:06 43.44836 16.19464 35010 ft 440 kts 153°
2026-05-08 11:07 43.39557 16.23673 35010 ft 439 kts 153°
2026-05-08 11:07 43.34302 16.27853 35010 ft 440 kts 153°
2026-05-08 11:08 43.29034 16.32036 35010 ft 439 kts 153°
2026-05-08 11:08 43.23723 16.36245 35010 ft 439 kts 153°
2026-05-08 11:09 43.18484 16.40387 35010 ft 439 kts 153°
2026-05-08 11:09 43.13227 16.44535 35009 ft 438 kts 153°
2026-05-08 11:10 43.07952 16.48689 35004 ft 438 kts 153°
2026-05-08 11:10 43.02664 16.52846 34999 ft 438 kts 153°
2026-05-08 11:11 42.97413 16.56965 34994 ft 438 kts 153°
2026-05-08 11:11 42.92133 16.61100 34991 ft 437 kts 153°
2026-05-08 11:12 42.86898 16.65189 34991 ft 438 kts 153°
2026-05-08 11:12 42.81634 16.69295 34991 ft 437 kts 153°
2026-05-08 11:13 42.76366 16.73397 34990 ft 438 kts 153°
2026-05-08 11:13 42.71101 16.77487 34991 ft 437 kts 153°
2026-05-08 11:14 42.65812 16.81471 34990 ft 436 kts 156°
2026-05-08 11:14 42.60314 16.84872 34988 ft 435 kts 159°
2026-05-08 11:14 42.57569 16.86513 34852 ft 437 kts 159°
2026-05-08 11:15 42.54765 16.88187 34487 ft 438 kts 158°
2026-05-08 11:15 42.51989 16.89843 33948 ft 439 kts 158°
2026-05-08 11:15 42.49221 16.91496 33299 ft 439 kts 158°
2026-05-08 11:15 42.46429 16.93161 32585 ft 441 kts 158°
2026-05-08 11:16 42.43660 16.94813 31852 ft 442 kts 158°
2026-05-08 11:16 42.40850 16.96488 31098 ft 444 kts 158°
2026-05-08 11:16 42.38003 16.98181 30318 ft 446 kts 158°
2026-05-08 11:16 42.35189 16.99853 29529 ft 448 kts 158°
2026-05-08 11:17 42.32347 17.01539 28873 ft 445 kts 158°
2026-05-08 11:17 42.29544 17.03202 28363 ft 440 kts 158°
2026-05-08 11:17 42.26788 17.04837 27851 ft 435 kts 158°
2026-05-08 11:17 42.24030 17.06470 27331 ft 431 kts 158°
2026-05-08 11:18 42.21325 17.08070 26819 ft 426 kts 158°
2026-05-08 11:18 42.18639 17.09657 26311 ft 422 kts 158°
2026-05-08 11:18 42.15955 17.11241 25803 ft 418 kts 158°
2026-05-08 11:18 42.13331 17.12789 25303 ft 413 kts 158°
2026-05-08 11:19 42.10724 17.14326 24805 ft 409 kts 158°
2026-05-08 11:19 42.08136 17.15849 24307 ft 406 kts 158°
2026-05-08 11:19 42.05561 17.17364 23808 ft 402 kts 158°
2026-05-08 11:19 42.03025 17.18854 23315 ft 399 kts 158°
2026-05-08 11:20 42.00495 17.20340 22823 ft 395 kts 158°
2026-05-08 11:20 41.98010 17.21800 22339 ft 392 kts 158°
2026-05-08 11:20 41.95453 17.22906 21822 ft 386 kts 173°
2026-05-08 11:20 41.92833 17.22850 21340 ft 380 kts 192°
2026-05-08 11:21 41.90375 17.21645 20800 ft 377 kts 210°
2026-05-08 11:21 41.88315 17.19541 20303 ft 375 kts 220°
2026-05-08 11:21 41.86380 17.17213 19842 ft 372 kts 221°
2026-05-08 11:21 41.84470 17.14897 19376 ft 369 kts 221°
2026-05-08 11:22 41.82589 17.12633 18919 ft 367 kts 220°
2026-05-08 11:22 41.80687 17.10361 18456 ft 364 kts 220°
2026-05-08 11:22 41.78804 17.08123 18009 ft 361 kts 220°
2026-05-08 11:22 41.76954 17.05931 17573 ft 358 kts 220°
2026-05-08 11:23 41.75079 17.03716 17128 ft 355 kts 219°
2026-05-08 11:23 41.73086 17.01799 16671 ft 352 kts 209°
2026-05-08 11:23 41.70897 17.00393 16181 ft 351 kts 200°
2026-05-08 11:23 41.68589 16.99416 15686 ft 350 kts 195°
2026-05-08 11:24 41.66267 16.98549 15230 ft 349 kts 195°
2026-05-08 11:24 41.63947 16.97693 14773 ft 347 kts 195°
2026-05-08 11:24 41.61628 16.96829 14316 ft 346 kts 195°
2026-05-08 11:24 41.59316 16.95959 13858 ft 344 kts 195°
2026-05-08 11:25 41.57020 16.95091 13418 ft 343 kts 195°
2026-05-08 11:25 41.54740 16.94227 12977 ft 341 kts 195°
2026-05-08 11:25 41.52488 16.93309 12533 ft 340 kts 198°
2026-05-08 11:25 41.50286 16.92237 12051 ft 340 kts 199°
2026-05-08 11:26 41.48071 16.91131 11566 ft 340 kts 199°
2026-05-08 11:26 41.45864 16.90027 11107 ft 338 kts 199°
2026-05-08 11:26 41.43706 16.88950 10853 ft 329 kts 199°
2026-05-08 11:26 41.41592 16.87898 10716 ft 318 kts 199°
2026-05-08 11:27 41.39588 16.86903 10583 ft 306 kts 199°
2026-05-08 11:27 41.37624 16.85929 10448 ft 296 kts 199°
2026-05-08 11:27 41.35715 16.84984 10315 ft 286 kts 199°
2026-05-08 11:27 41.33887 16.84079 10028 ft 282 kts 198°
2026-05-08 11:28 41.32054 16.83173 9666 ft 281 kts 198°
2026-05-08 11:28 41.30246 16.82200 9304 ft 281 kts 207°
2026-05-08 11:28 41.28733 16.80574 8932 ft 285 kts 228°
2026-05-08 11:28 41.27632 16.78379 8559 ft 286 kts 237°
2026-05-08 11:29 41.26638 16.76086 8205 ft 285 kts 238°
2026-05-08 11:29 41.25671 16.73826 7867 ft 284 kts 238°
2026-05-08 11:29 41.24685 16.71561 7530 ft 282 kts 237°
2026-05-08 11:29 41.23699 16.69325 7198 ft 280 kts 237°
2026-05-08 11:30 41.22704 16.67084 6870 ft 278 kts 237°
2026-05-08 11:30 41.21730 16.64894 6582 ft 275 kts 237°
2026-05-08 11:30 41.20820 16.62689 6253 ft 275 kts 242°
2026-05-08 11:30 41.20060 16.60320 5911 ft 275 kts 246°
2026-05-08 11:31 41.19389 16.57975 5586 ft 274 kts 247°
2026-05-08 11:31 41.18720 16.55591 5261 ft 273 kts 247°
2026-05-08 11:31 41.18057 16.53242 4942 ft 272 kts 247°
2026-05-08 11:31 41.17404 16.50939 4767 ft 264 kts 247°
2026-05-08 11:32 41.16765 16.48700 4614 ft 256 kts 246°
2026-05-08 11:32 41.16141 16.46514 4478 ft 248 kts 246°
2026-05-08 11:32 41.15495 16.44440 4364 ft 237 kts 236°
2026-05-08 11:32 41.14349 16.43079 4225 ft 219 kts 196°
2026-05-08 11:33 41.12882 16.42966 4134 ft 212 kts 163°
2026-05-08 11:33 41.11502 16.43652 4058 ft 210 kts 156°
2026-05-08 11:33 41.10152 16.44382 3993 ft 207 kts 157°
2026-05-08 11:33 41.08855 16.45058 4006 ft 193 kts 158°
2026-05-08 11:34 41.07633 16.45694 4061 ft 190 kts 155°
2026-05-08 11:34 41.06666 16.46830 3990 ft 184 kts 120°
2026-05-08 11:34 41.06412 16.48480 3994 ft 183 kts 92°
2026-05-08 11:34 41.06585 16.50158 3917 ft 186 kts 80°
2026-05-08 11:35 41.06967 16.51790 3688 ft 186 kts 73°
2026-05-08 11:35 41.07433 16.53375 3440 ft 185 kts 72°
2026-05-08 11:35 41.07907 16.54970 3191 ft 184 kts 72°
2026-05-08 11:35 41.08362 16.56547 2950 ft 183 kts 73°
2026-05-08 11:36 41.08805 16.58121 2710 ft 182 kts 73°
2026-05-08 11:36 41.09238 16.59668 2469 ft 180 kts 73°
2026-05-08 11:36 41.09669 16.61206 2229 ft 173 kts 73°
2026-05-08 11:36 41.10077 16.62656 1992 ft 161 kts 73°
2026-05-08 11:37 41.10449 16.63984 1820 ft 147 kts 71°
2026-05-08 11:37 41.10788 16.65194 1616 ft 134 kts 71°
2026-05-08 11:37 41.11106 16.66329 1434 ft 131 kts 71°
2026-05-08 11:37 41.11424 16.67460 1263 ft 130 kts 71°
2026-05-08 11:38 41.11739 16.68577 1096 ft 130 kts 71°
2026-05-08 11:38 41.12057 16.69704 920 ft 129 kts 71°
2026-05-08 11:38 41.12368 16.70813 752 ft 129 kts 71°
2026-05-08 11:38 41.12684 16.71929 571 ft 128 kts 71°
2026-05-08 11:39 41.12996 16.73027 401 ft 127 kts 71°
2026-05-08 11:39 41.13302 16.74111 226 ft 126 kts 71°
2026-05-08 11:39 41.13578 16.75094 196 ft 90 kts 69°
2026-05-08 11:39 41.13737 16.75657 196 ft 40 kts 69°
2026-05-08 11:40 41.13821 16.75952 196 ft 31 kts 70°
2026-05-08 11:40 41.13893 16.76208 196 ft 27 kts 69°
2026-05-08 11:40 41.13955 16.76429 196 ft 24 kts 70°
2026-05-08 11:40 41.14001 16.76588 196 ft 9 kts 76°
2026-05-08 11:41 41.13986 16.76669 196 ft 9 kts 113°
2026-05-08 11:41 41.13951 16.76712 196 ft 6 kts 181°
2026-05-08 11:41 41.13907 16.76689 196 ft 7 kts 213°
2026-05-08 11:41 41.13859 16.76647 196 ft 8 kts 213°
2026-05-08 11:42 41.13821 16.76603 196 ft 6 kts 240°
2026-05-08 11:42 41.13798 16.76555 196 ft 4 kts 212°
2026-05-08 11:42 41.13761 16.76558 196 ft 5 kts 163°
2026-05-08 11:42 41.13719 16.76562 196 ft 6 kts 195°
2026-05-08 11:43 41.13674 16.76535 196 ft 7 kts 213°
2026-05-08 11:43 41.13640 16.76473 196 ft 9 kts 248°
2026-05-08 11:43 41.13615 16.76387 196 ft 10 kts 250°
2026-05-08 11:43 41.13588 16.76290 196 ft 11 kts 249°
2026-05-08 11:44 41.13568 16.76228 196 ft 4 kts 232°
2026-05-08 11:44 41.13533 16.76220 196 ft 6 kts 161°
2026-05-08 11:44 41.13500 16.76235 196 ft 0 kts 160°